Location: Cadeilhan
(42.8161°N, 0.3161°E)
Time: 03:31:08
(UTC+00:00)

CZ-2C R/B - Pass Details

Date: 18 February 2020
Orbit: 667 x 785 km, 98.1° (Epoch: 09 April)

Event Time Altitude Azimuth Distance (km) Brightness Sun altitude
Rises 05:31:14 0° 359° (N) 3,286 5.8 -15.6°
Reaches altitude 10° 05:34:04 10° 345° (NNW) 2,348 4.8 -15.0°
Maximum altitude 05:37:53 21° 297° (WNW) 1,684 3.7 -14.3°
Enters shadow 05:38:39 21° 285° (WNW) 1,711 3.7 -14.2°
